When you browse on this site, cookies collect data to enhance your experience and personalize the content and advertising you see.
Visit our Privacy Policy to learn more. By continuing to use the site, you agree to this use of cookies and data.
  • Em Portugal
  • Lista de países
  • Para 7 dias
  • Temperatura da água
  • Mapa do tempo
  • Widgets de tempo
  • user-avatar
    Iniciar Sessão

    Previsão horária em Balchik

    Hoje, 28 Março, Sábado

    Tempo Temperatura Precipitação Vento Pressão Humidade
    00:00 +3°C° 0 mm 3 m/s 738 mmHg 74%
    01:00 +3°C° 0 mm 3 m/s 737 mmHg 74%
    02:00 +3°C° 0 mm 3 m/s 737 mmHg 74%
    03:00 +3°C° 0 mm 3 m/s 737 mmHg 75%
    04:00 +3°C° 0 mm 3 m/s 737 mmHg 76%
    05:00 +3°C° 0 mm 4 m/s 737 mmHg 77%
    06:00 +4°C° 0 mm 4 m/s 737 mmHg 75%
    07:00 +5°C° 0 mm 4 m/s 737 mmHg 72%
    08:00 +6°C° 0 mm 4 m/s 737 mmHg 70%
    09:00 +7°C° 0 mm 5 m/s 737 mmHg 65%
    10:00 +9°C° 0 mm 5 m/s 737 mmHg 60%
    11:00 +12°C° 0 mm 5 m/s 736 mmHg 55%
    12:00 +12°C° 0 mm 5 m/s 736 mmHg 53%
    13:00 +13°C° 0 mm 5 m/s 736 mmHg 51%
    14:00 +14°C° 0 mm 4 m/s 735 mmHg 49%
    15:00 +14°C° 0 mm 4 m/s 735 mmHg 50%
    16:00 +14°C° 0 mm 4 m/s 735 mmHg 52%
    17:00 +13°C° 0 mm 4 m/s 735 mmHg 53%
    18:00 +12°C° 0 mm 3 m/s 735 mmHg 59%
    19:00 +10°C° 0 mm 2 m/s 734 mmHg 65%
    20:00 +8°C° 0 mm 2 m/s 734 mmHg 71%
    21:00 +8°C° 0 mm 2 m/s 734 mmHg 72%
    22:00 +8°C° 0 mm 2 m/s 734 mmHg 73%
    23:00 +7°C° 0 mm 2 m/s 734 mmHg 75%

    Amanhã, 29 Março, Domingo

    Tempo Temperatura Precipitação Vento Pressão Humidade
    00:00 +7°C° 0 mm 3 m/s 734 mmHg 75%
    01:00 +7°C° 0 mm 3 m/s 734 mmHg 76%
    02:00 +6°C° 0 mm 4 m/s 733 mmHg 76%
    03:00 +6°C° 0 mm 4 m/s 733 mmHg 76%
    04:00 +6°C° 0 mm 4 m/s 733 mmHg 76%
    05:00 +5°C° 0 mm 5 m/s 733 mmHg 76%
    06:00 +6°C° 0 mm 5 m/s 733 mmHg 72%
    07:00 +7°C° 0 mm 5 m/s 733 mmHg 69%
    08:00 +8°C° 0 mm 6 m/s 733 mmHg 65%
    09:00 +9°C° 0 mm 5 m/s 733 mmHg 62%
    10:00 +10°C° 0 mm 5 m/s 733 mmHg 58%
    11:00 +13°C° 0 mm 5 m/s 734 mmHg 55%
    12:00 +13°C° 0 mm 5 m/s 733 mmHg 52%
    13:00 +14°C° 0 mm 5 m/s 733 mmHg 49%
    14:00 +14°C° 0 mm 4 m/s 733 mmHg 47%
    15:00 +14°C° 0 mm 4 m/s 733 mmHg 48%
    16:00 +14°C° 0 mm 3 m/s 733 mmHg 50%
    17:00 +15°C° 0 mm 2 m/s 733 mmHg 51%
    18:00 +14°C° 0 mm 2 m/s 733 mmHg 55%
    19:00 +12°C° 0 mm 2 m/s 733 mmHg 59%
    20:00 +10°C° 0 mm 2 m/s 733 mmHg 63%
    21:00 +10°C° 0 mm 3 m/s 733 mmHg 66%
    22:00 +9°C° 0 mm 3 m/s 734 mmHg 68%
    23:00 +9°C° 0 mm 3 m/s 734 mmHg 71%

    Depois de amanhã, 30 Março, Segunda-feira

    Tempo Temperatura Precipitação Vento Pressão Humidade
    00:00 +8°C° 0 mm 3 m/s 734 mmHg 72%
    01:00 +8°C° 0 mm 3 m/s 734 mmHg 73%
    02:00 +8°C° 0 mm 3 m/s 734 mmHg 74%
    03:00 +7°C° 0 mm 3 m/s 734 mmHg 76%
    04:00 +7°C° 0 mm 3 m/s 734 mmHg 79%
    05:00 +7°C° 0 mm 3 m/s 734 mmHg 82%
    06:00 +8°C° 0 mm 3 m/s 734 mmHg 78%
    07:00 +9°C° 0 mm 3 m/s 735 mmHg 74%
    08:00 +10°C° 0 mm 3 m/s 735 mmHg 70%
    09:00 +12°C° 0.1 mm 3 m/s 735 mmHg 64%
    10:00 +14°C° 0.1 mm 3 m/s 736 mmHg 58%
    11:00 +16°C° 0.1 mm 2 m/s 736 mmHg 52%
    12:00 +17°C° 0.3 mm 2 m/s 736 mmHg 49%
    13:00 +17°C° 0.3 mm 2 m/s 736 mmHg 46%
    14:00 +18°C° 0.3 mm 2 m/s 736 mmHg 43%
    15:00 +17°C° 0.2 mm 2 m/s 735 mmHg 48%
    16:00 +16°C° 0.2 mm 3 m/s 735 mmHg 53%
    17:00 +14°C° 0.2 mm 3 m/s 735 mmHg 58%
    18:00 +12°C° 0 mm 3 m/s 735 mmHg 63%
    19:00 +11°C° 0 mm 3 m/s 735 mmHg 68%
    20:00 +9°C° 0 mm 2 m/s 736 mmHg 74%
    21:00 +9°C° 0 mm 2 m/s 736 mmHg 74%
    22:00 +8°C° 0 mm 2 m/s 736 mmHg 74%
    23:00 +8°C° 0 mm 2 m/s 736 mmHg 74%

    31 Março, Terça-feira

    Tempo Temperatura Precipitação Vento Pressão Humidade
    00:00 +8°C° 0 mm 2 m/s 736 mmHg 75%
    01:00 +9°C° 0 mm 1 m/s 736 mmHg 76%
    02:00 +8°C° 0 mm 1 m/s 735 mmHg 78%
    03:00 +8°C° 0 mm 1 m/s 735 mmHg 79%
    04:00 +8°C° 0 mm 1 m/s 736 mmHg 81%
    05:00 +7°C° 0 mm 1 m/s 736 mmHg 83%
    06:00 +7°C° 0 mm 2 m/s 736 mmHg 82%
    07:00 +7°C° 0 mm 3 m/s 736 mmHg 82%
    08:00 +7°C° 0 mm 4 m/s 736 mmHg 81%
    09:00 +8°C° 0 mm 4 m/s 736 mmHg 78%
    10:00 +10°C° 0 mm 4 m/s 737 mmHg 75%
    11:00 +11°C° 0 mm 4 m/s 737 mmHg 72%
    12:00 +10°C° 0 mm 5 m/s 737 mmHg 72%
    13:00 +9°C° 0 mm 6 m/s 737 mmHg 72%
    14:00 +9°C° 0 mm 6 m/s 737 mmHg 72%
    15:00 +8°C° 0 mm 7 m/s 737 mmHg 74%
    16:00 +6°C° 0 mm 7 m/s 737 mmHg 76%
    17:00 +5°C° 0 mm 7 m/s 737 mmHg 78%
    18:00 +5°C° 0 mm 6 m/s 737 mmHg 80%
    19:00 +4°C° 0 mm 6 m/s 738 mmHg 81%
    20:00 +4°C° 0 mm 6 m/s 738 mmHg 83%
    21:00 +3°C° 0 mm 6 m/s 738 mmHg 84%
    22:00 +3°C° 0 mm 6 m/s 739 mmHg 84%
    23:00 +3°C° 0 mm 6 m/s 739 mmHg 85%

    1 Abril, Quarta-feira

    Tempo Temperatura Precipitação Vento Pressão Humidade
    00:00 +2°C° 0 mm 6 m/s 739 mmHg 86%
    01:00 +2°C° 0 mm 6 m/s 739 mmHg 87%
    02:00 +1°C° 0 mm 6 m/s 739 mmHg 88%
    03:00 +1°C° 0 mm 5 m/s 739 mmHg 89%
    04:00 +1°C° 0 mm 5 m/s 739 mmHg 90%
    05:00 +1°C° 0 mm 5 m/s 739 mmHg 91%
    06:00 0°C° 0.2 mm 5 m/s 739 mmHg 92%
    07:00 0°C° 0.2 mm 5 m/s 739 mmHg 93%
    08:00 0°C° 0.2 mm 5 m/s 739 mmHg 93%
    09:00 0°C° 0.5 mm 5 m/s 739 mmHg 94%
    10:00 0°C° 0.5 mm 5 m/s 739 mmHg 94%
    11:00 0°C° 0.5 mm 5 m/s 739 mmHg 94%
    12:00 0°C° 0.4 mm 5 m/s 739 mmHg 94%
    13:00 0°C° 0.4 mm 5 m/s 739 mmHg 94%
    14:00 0°C° 0.4 mm 5 m/s 739 mmHg 94%
    15:00 0°C° 0.1 mm 5 m/s 739 mmHg 92%
    16:00 +1°C° 0.1 mm 5 m/s 739 mmHg 91%
    17:00 +1°C° 0.1 mm 4 m/s 738 mmHg 89%
    18:00 +1°C° 0.2 mm 4 m/s 739 mmHg 89%
    19:00 +1°C° 0.2 mm 4 m/s 739 mmHg 88%
    20:00 +1°C° 0.2 mm 4 m/s 739 mmHg 88%
    21:00 +1°C° 0.1 mm 4 m/s 739 mmHg 88%
    22:00 +1°C° 0.1 mm 5 m/s 740 mmHg 87%
    23:00 +1°C° 0.1 mm 5 m/s 740 mmHg 86%

    2 Abril, Quinta-feira

    Tempo Temperatura Precipitação Vento Pressão Humidade
    00:00 0°C° 0 mm 5 m/s 740 mmHg 85%
    01:00 0°C° 0 mm 5 m/s 739 mmHg 84%
    02:00 0°C° 0 mm 5 m/s 739 mmHg 82%
    03:00 -1°C° 0 mm 5 m/s 739 mmHg 83%
    04:00 -1°C° 0 mm 5 m/s 740 mmHg 83%
    05:00 -2°C° 0 mm 5 m/s 740 mmHg 84%
    06:00 -2°C° 0 mm 6 m/s 740 mmHg 79%
    07:00 -1°C° 0 mm 6 m/s 740 mmHg 74%
    08:00 +1°C° 0 mm 6 m/s 740 mmHg 70%
    09:00 +2°C° 0 mm 6 m/s 740 mmHg 63%
    10:00 +3°C° 0 mm 6 m/s 740 mmHg 56%
    11:00 +5°C° 0 mm 6 m/s 741 mmHg 50%
    12:00 +7°C° 0 mm 6 m/s 741 mmHg 47%
    13:00 +7°C° 0 mm 5 m/s 741 mmHg 45%
    14:00 +8°C° 0 mm 4 m/s 741 mmHg 42%
    15:00 +8°C° 0 mm 4 m/s 740 mmHg 44%
    16:00 +9°C° 0 mm 3 m/s 740 mmHg 45%
    17:00 +9°C° 0 mm 3 m/s 740 mmHg 47%
    18:00 +7°C° 0 mm 2 m/s 740 mmHg 55%
    19:00 +5°C° 0 mm 2 m/s 740 mmHg 64%
    20:00 +3°C° 0 mm 2 m/s 740 mmHg 73%
    21:00 +3°C° 0 mm 2 m/s 740 mmHg 75%
    22:00 +3°C° 0 mm 2 m/s 741 mmHg 77%
    23:00 +2°C° 0 mm 2 m/s 741 mmHg 79%
    Mostrar mais